Duchifat 3
1 44854U 19089C   25072.70711395  .00062008  00000-0  16696-2 0  9997
2 44854  36.9467 190.2547 0005614 178.2145 181.8629 15.36782474289375
TO-108
1 44881U 19093C   25072.85730577  .00002463  00000-0  29262-3 0  9994
2 44881  97.7985 150.3368 0014594 154.7164 205.4768 14.85262189283055
FloripaSat 1
1 44885U 19093G   25072.83255986  .00013600  00000-0  11908-2 0  9994
2 44885  97.8174 160.3466 0011742 139.4254 220.7845 14.96769868283618
RS-44
1 44909U 19096E   25072.60154854  .00000038  00000-0  10075-3 0  9997
2 44909  82.5175 285.7487 0218111 141.0879 220.6152 12.79739055243433
UPMSat 2
1 46276U 20061E   25072.44118047  .00077023  00000-0  11051-2 0  9998
2 46276  97.2565 144.6298 0001596 168.5932 191.5359 15.55876383251709
SALSAT
1 46495U 20068K   25072.44612141  .00017609  00000-0  80339-3 0  9992
2 46495  97.8528  46.5658 0014306 104.8028 255.4792 15.20598975245129
CubeSX-Sirius-HSE
1 47951U 21022V   25072.85659504  .00128607  00000-0  16818-2 0  9991
2 47951  97.4300 341.1975 0003860 225.6968 134.3972 15.58186421220033
CubeSX-HSE
1 47952U 21022W   25072.89133344  .00136227  00000-0  17383-2 0  9990
2 47952  97.4301 341.4359 0004163 213.4526 146.6468 15.58813507220056
KSU-Cubesat
1 47954U 21022Y   25072.70471357  .00974109  43801-3  23919-2 0  9991
2 47954  97.4204 346.3948 0006871 151.0934 209.0724 15.96123403220078
GRBAlpha
1 47959U 21022AD  25072.85652722  .00129726  00000-0  16714-2 0  9992
2 47959  97.4289 341.5465 0003925 223.2023 136.8925 15.58579521218874
Orbicraft-Zorkiy
1 47960U 21022AE  25072.82250141  .00318181  00000-0  20923-2 0  9992
2 47960  97.4259 345.1268 0004451 161.9022 198.2402 15.74772334219762
TUBIN
1 48900U 21059X   25072.88114069  .00056334  00000-0  98003-3 0  9995
2 48900  97.6688 235.6298 0004896 208.4561 151.6423 15.50596917206407
LEDSAT
1 49069U 21073D   25072.82824782  .00069068  00000-0  13246-2 0  9995
2 49069  97.3986 151.4992 0011157  42.6014 317.6100 15.47696667197805
CUTE
1 49263U 21088D   25072.47105227  .00027250  00000-0  62477-3 0  9992
2 49263  97.4599 146.4007 0009476 194.8185 165.2786 15.42674753190822
TeikyoSat 4
1 49396U 21102B   25072.59521625  .00005510  00000-0  37113-3 0  9997
2 49396  97.4227 114.1732 0014115  77.5515 282.7291 15.07001660183295
Z-Sat
1 49399U 21102E   25072.84336907  .00009116  00000-0  51463-3 0  9995
2 49399  97.3932 116.9968 0019767  52.4367 307.8656 15.13185699183708
KOSEN 1
1 49402U 21102H   25072.69131625  .00014455  00000-0  70305-3 0  9991
2 49402  97.3838 119.6379 0016945  31.8708 328.3548 15.18380295183947
HO-113
1 50466U 21131B   25072.83845243  .00001382  00000-0  44722-3 0  9998
2 50466  98.5099 162.6417 0004794  52.4847 307.6777 14.40610460168811
IRIS-A
1 51044U 22002BN  25072.27538882  .00154431  00000-0  16415-2 0  9996
2 51044  97.3380 148.1850 0003932 162.5081 197.6314 15.63528925175946
Foresail-1
1 52766U 22057AL  25072.63826342  .00120952  00000-0  13408-2 0  9999
2 52766  97.6009 216.0252 0007092 243.2076 116.8456 15.62536819156031
SNUGLITE 2
1 52899U 22065F   25072.88135061  .00003233  00000-0  64254-3 0  9991
2 52899  98.1525 215.7992 0007922  36.3940 323.7798 14.62784900143665
IO-117
1 53106U 22080B   25051.21822557 -.00000003  00000-0  00000+0 0  9995
2 53106  70.1434 106.3440 0008542  48.0089 312.1297  6.42557744 61200
UmKA 1 (RS40S)
1 57172U 23091G   25072.87621934  .00012172  00000-0  67806-3 0  9996
2 57172  97.5709 128.7501 0013332 276.8923  83.0791 15.13685818 94203
CubeBel-2 (EU11S)
1 57175U 23091K   25072.84642745  .00018351  00000-0  93677-3 0  9999
2 57175  97.5706 129.3923 0011535 286.7994  73.1973 15.16709218 94249
VERONIKA
1 58261U 23174F   25072.80311388  .00094245  00000-0  17329-2 0  9995
2 58261  97.4231 155.1582 0005649 354.3928   5.7258 15.48858082 75003
KAFASAT
1 58317U 23174BP  25072.53775329  .00472411  00000-0  26028-2 0  9997
2 58317  97.4083 159.0886 0007150 279.8049  80.2410 15.78391323 75263
ENSO
1 58470U 23185J   25072.87687412  .00060492  00000-0  12893-2 0  9998
2 58470  97.3843 145.8379 0007575  43.5230 316.6615 15.44683866 71443
EIRSAT-1
1 58472U 23185L   25072.88366772  .00084034  00000-0  15067-2 0  9998
2 58472  97.3834 146.7022 0006085  42.2457 317.9262 15.49616913 71505
SONATE-2
1 59112U 24043Q   25072.36153016  .00035700  00000-0  11764-2 0  9998
2 59112  97.5000 202.0975 0011949  70.5482 289.7049 15.31311421 56817
MO-122
1 60209U 24125G   25072.13154479  .00030815  00000-0  10024-2 0  9997
2 60209  97.2914 284.9224 0021988  94.3850 265.9905 15.31587751 38391
GRBBeta
1 60237U 24128C   25072.20037901  .00014140  00000-0  10848-2 0  9996
2 60237  61.9938  27.4557 0043728  37.7878 322.6268 15.01302767 36921
Curium One
1 60242U 24128H   25072.29501411  .00022379  00000-0  16352-2 0  9992
2 60242  61.9837  26.5354 0044007  33.1528 327.2307 15.02879929 36951
ROBUSTA-3A
1 60243U 24128J   25072.20654803  .00023015  00000-0  17016-2 0  9994
2 60243  61.9907  27.4000 0042174  30.9438 329.4124 15.02487489 36931
CatSat
1 60246U 24125J   25072.61982682  .00018245  00000-0  65155-3 0  9995
2 60246  97.2696 285.5137 0045970  48.7783 311.7405 15.27876496 36546
HYPERVIEW-1G (RS66S)
1 61772U 24199AP  25072.90071454  .00034205  00000-0  11589-2 0  9994
2 61772  97.3687 302.1500 0016005 141.5410 218.6975 15.30365065 63522
AO-123
1 61781U 24199AY  25072.86921015  .00014621  00000-0  56065-3 0  9995
2 61781  97.3692 301.7501 0017394 143.8141 216.4279 15.26459991 63498
ZIMSAT 2
1 61783U 24199BA  25072.90619788  .00049924  00000-0  15752-2 0  9994
2 61783  97.3680 302.2883 0016862 140.8700 219.3765 15.32556517 66688
POEM 4 (BGS ARPIT)
1 62461U 24253C   25072.69920914  .00340973  56596-4  87241-3 0  9997
2 62461  55.2136 266.2567 0004660 134.7611 225.3825 15.94865162 11530
HADES-R (SO-124)
1 62690U 25009CK  25072.77625944  .00053236  00000-0  24194-2 0  9990
2 62690  97.4164 154.3958 0001998  56.5003 303.6423 15.20558374  8769
HYDRA-T
1 62692U 25009CM  25071.19326856  .00048306  00000-0  22008-2 0  9991
2 62692  97.4167 152.8450 0001795  59.6329 300.5083 15.20500716  8523
